Location: Unspecified
(48.8656°N, 0.0000°E)
Time: 16:37:11
(UTC+00:00)

Vanguard 1 - Pass Details

Date: 23 June 2019
Orbit: 653 x 3830 km, 34.3° (Epoch: 18 July)

Event Time Altitude Azimuth Distance (km) Brightness Sun altitude
Rises 03:44:53 0° 244° (WSW) 7,371 - -2.3°
Exits shadow 03:45:08 - 244° (WSW) 7,311 13.9 -2.3°
Reaches altitude 10° 03:50:51 10° 238° (WSW) 5,923 13.4 -1.6°
Maximum altitude 04:05:11 38° 179° (S) 2,848 12.2 0.3°
Drops below altitude 10° 04:13:38 10° 115° (ESE) 3,516 13.4 1.4°
Sets 04:16:12 0° 107° (ESE) 4,178 13.9 1.7°
